TOM3HJ EGCC-LMML

Flight info

Callsign TOM3HJ
Flight time N/A
Altitude 37000
Route LISTO P18 TELBA L151 MID UL612 OGULO DCT OKASI DCT OKEKO DCT MOU DCT MADIV DCT MOKIP DCT TUFTA DCT KOGAS DCT MEDAM DCT NITAM DCT MOGBO DCT TIDKA DCT KONER DCT KISTO DCT ROXAN DCT RONAB DCT PAL DCT MARON L12 GZO
Aircraft B738/M-SDE2E3FGHIRWXY/LB1

Departure

Time N/A
Airport Manchester Airport (EGCC)

Arrival

Time 2026-04-29 22:13
Airport Malta International Airport (LMML)
Time Latitude Longitude Altitude Speed Heading
2026-04-29 21:30 39.12066 12.42505 37035 ft 456 kts 156°
2026-04-29 21:30 39.06497 12.46425 37046 ft 456 kts 156°
2026-04-29 21:31 39.00922 12.50339 37034 ft 456 kts 156°
2026-04-29 21:31 38.95376 12.54225 37034 ft 457 kts 156°
2026-04-29 21:32 38.89795 12.58130 37043 ft 457 kts 156°
2026-04-29 21:32 38.84209 12.62028 37034 ft 457 kts 156°
2026-04-29 21:33 38.78631 12.65919 37040 ft 457 kts 156°
2026-04-29 21:33 38.73045 12.69807 37041 ft 456 kts 157°
2026-04-29 21:34 38.67454 12.73690 37032 ft 456 kts 157°
2026-04-29 21:34 38.61868 12.77563 37041 ft 457 kts 157°
2026-04-29 21:35 38.56305 12.81413 37032 ft 457 kts 157°
2026-04-29 21:35 38.50710 12.85279 37027 ft 457 kts 157°
2026-04-29 21:36 38.45112 12.89141 37028 ft 457 kts 157°
2026-04-29 21:36 38.39511 12.92997 37028 ft 457 kts 157°
2026-04-29 21:37 38.33904 12.96847 37025 ft 457 kts 157°
2026-04-29 21:37 38.28297 13.00695 37027 ft 458 kts 157°
2026-04-29 21:38 38.22690 13.04537 36918 ft 460 kts 157°
2026-04-29 21:38 38.19883 13.06453 36444 ft 465 kts 157°
2026-04-29 21:38 38.17031 13.08403 35932 ft 463 kts 157°
2026-04-29 21:38 38.14204 13.10336 35533 ft 460 kts 157°
2026-04-29 21:39 38.11394 13.12256 35122 ft 457 kts 157°
2026-04-29 21:39 38.08598 13.14162 34709 ft 454 kts 157°
2026-04-29 21:39 38.05823 13.16050 34313 ft 452 kts 157°
2026-04-29 21:39 38.03053 13.17922 33904 ft 449 kts 159°
2026-04-29 21:40 38.00227 13.19597 33288 ft 449 kts 162°
2026-04-29 21:40 37.97352 13.21119 32866 ft 445 kts 164°
2026-04-29 21:40 37.94484 13.22577 32444 ft 443 kts 165°
2026-04-29 21:40 37.91627 13.24023 32048 ft 440 kts 165°
2026-04-29 21:41 37.88827 13.25454 31647 ft 438 kts 165°
2026-04-29 21:41 37.86015 13.26908 31265 ft 435 kts 165°
2026-04-29 21:41 37.83222 13.28366 30874 ft 433 kts 165°
2026-04-29 21:41 37.80450 13.29823 30494 ft 431 kts 165°
2026-04-29 21:42 37.77685 13.31277 30121 ft 429 kts 165°
2026-04-29 21:42 37.74931 13.32726 29719 ft 426 kts 165°
2026-04-29 21:42 37.73120 13.33678 29469 ft 425 kts 164°
2026-04-29 21:42 37.69488 13.35586 28932 ft 420 kts 164°
2026-04-29 21:43 37.66799 13.36997 28553 ft 417 kts 164°
2026-04-29 21:43 37.64128 13.38397 28167 ft 415 kts 164°
2026-04-29 21:43 37.61471 13.39788 27763 ft 412 kts 163°
2026-04-29 21:43 37.58837 13.41165 27384 ft 408 kts 163°
2026-04-29 21:44 37.56217 13.42538 27004 ft 405 kts 163°
2026-04-29 21:44 37.53627 13.43892 26621 ft 402 kts 163°
2026-04-29 21:44 37.51055 13.45234 26250 ft 398 kts 162°
2026-04-29 21:44 37.48503 13.46565 25881 ft 396 kts 162°
2026-04-29 21:45 37.45966 13.47887 25506 ft 393 kts 162°
2026-04-29 21:45 37.43479 13.49184 25141 ft 390 kts 162°
2026-04-29 21:45 37.40989 13.50481 24902 ft 384 kts 161°
2026-04-29 21:45 37.38536 13.51759 24642 ft 378 kts 161°
2026-04-29 21:46 37.36119 13.53015 24277 ft 375 kts 161°
2026-04-29 21:46 37.33700 13.54270 23880 ft 374 kts 161°
2026-04-29 21:46 37.31305 13.55513 23509 ft 372 kts 161°
2026-04-29 21:46 37.28920 13.56750 23145 ft 369 kts 161°
2026-04-29 21:47 37.26551 13.57978 22760 ft 368 kts 161°
2026-04-29 21:47 37.24183 13.59205 22363 ft 367 kts 161°
2026-04-29 21:47 37.21826 13.60426 21978 ft 365 kts 161°
2026-04-29 21:47 37.19510 13.61624 21617 ft 364 kts 161°
2026-04-29 21:48 37.17172 13.62834 21204 ft 363 kts 161°
2026-04-29 21:48 37.14831 13.64043 20753 ft 364 kts 161°
2026-04-29 21:48 37.12495 13.65249 20306 ft 361 kts 161°
2026-04-29 21:48 37.10178 13.66445 19843 ft 357 kts 161°
2026-04-29 21:49 37.08629 13.67243 19537 ft 355 kts 161°
2026-04-29 21:49 37.06394 13.68395 19090 ft 351 kts 160°
2026-04-29 21:49 37.04143 13.69553 18644 ft 348 kts 160°
2026-04-29 21:49 37.01918 13.70698 18242 ft 343 kts 160°
2026-04-29 21:50 36.99722 13.71827 17837 ft 339 kts 160°
2026-04-29 21:50 36.97554 13.72940 17439 ft 335 kts 160°
2026-04-29 21:50 36.95399 13.74046 17035 ft 332 kts 160°
2026-04-29 21:50 36.93274 13.75136 16631 ft 328 kts 160°
2026-04-29 21:51 36.91169 13.76216 16226 ft 325 kts 160°
2026-04-29 21:51 36.89084 13.77284 15836 ft 322 kts 160°
2026-04-29 21:51 36.84971 13.79389 15029 ft 317 kts 160°
2026-04-29 21:52 36.82937 13.80429 14633 ft 315 kts 160°
2026-04-29 21:52 36.80944 13.81451 14240 ft 313 kts 160°
2026-04-29 21:52 36.78931 13.82482 13847 ft 311 kts 160°
2026-04-29 21:52 36.76938 13.83499 13433 ft 307 kts 160°
2026-04-29 21:53 36.74963 13.84515 13027 ft 305 kts 160°
2026-04-29 21:53 36.73005 13.85514 12636 ft 303 kts 160°
2026-04-29 21:53 36.71060 13.86502 12232 ft 300 kts 160°
2026-04-29 21:53 36.69134 13.87481 11861 ft 298 kts 160°
2026-04-29 21:54 36.67221 13.88452 11488 ft 295 kts 160°
2026-04-29 21:54 36.65356 13.89401 11117 ft 292 kts 160°
2026-04-29 21:54 36.63485 13.90352 10742 ft 289 kts 159°
2026-04-29 21:54 36.61633 13.91293 10371 ft 286 kts 159°
2026-04-29 21:55 36.59790 13.92229 9993 ft 283 kts 159°
2026-04-29 21:55 36.57976 13.93151 9618 ft 281 kts 159°
2026-04-29 21:55 36.56177 13.94065 9240 ft 277 kts 159°
2026-04-29 21:55 36.54403 13.94966 8865 ft 274 kts 159°
2026-04-29 21:56 36.52654 13.95854 8490 ft 270 kts 158°
2026-04-29 21:56 36.50923 13.96731 8106 ft 267 kts 158°
2026-04-29 21:56 36.49205 13.97571 7733 ft 263 kts 160°
2026-04-29 21:56 36.47484 13.98309 7380 ft 260 kts 161°
2026-04-29 21:57 36.45784 13.99013 7047 ft 255 kts 161°
2026-04-29 21:57 36.44108 13.99703 6713 ft 251 kts 162°
2026-04-29 21:57 36.42458 14.00387 6394 ft 248 kts 161°
2026-04-29 21:57 36.40834 14.01062 6087 ft 244 kts 161°
2026-04-29 21:58 36.39235 14.01727 5788 ft 240 kts 161°
2026-04-29 21:58 36.37617 14.02070 5450 ft 238 kts 187°
2026-04-29 21:58 36.36178 14.01191 5165 ft 239 kts 223°
2026-04-29 21:58 36.35126 13.99603 4967 ft 237 kts 229°
2026-04-29 21:59 36.34107 13.98006 4721 ft 235 kts 229°
2026-04-29 21:59 36.33097 13.96414 4481 ft 234 kts 228°
2026-04-29 21:59 36.32095 13.94827 4241 ft 233 kts 229°
2026-04-29 21:59 36.31096 13.93242 4004 ft 233 kts 229°
2026-04-29 22:00 36.30094 13.91673 3775 ft 230 kts 223°
2026-04-29 22:00 36.28795 13.90704 3525 ft 214 kts 184°
2026-04-29 22:00 36.27422 13.91049 3273 ft 200 kts 142°
2026-04-29 22:00 36.26501 13.92273 3099 ft 190 kts 129°
2026-04-29 22:01 36.25668 13.93537 3023 ft 189 kts 128°
2026-04-29 22:01 36.24865 13.94812 3001 ft 187 kts 128°
2026-04-29 22:01 36.24078 13.96070 3003 ft 188 kts 128°
2026-04-29 22:01 36.23268 13.97369 3003 ft 188 kts 128°
2026-04-29 22:02 36.22479 13.98632 2997 ft 188 kts 128°
2026-04-29 22:02 36.21675 13.99918 3002 ft 189 kts 128°
2026-04-29 22:02 36.20869 14.01214 3003 ft 190 kts 127°
2026-04-29 22:02 36.20061 14.02515 3003 ft 190 kts 127°
2026-04-29 22:03 36.19251 14.03810 2999 ft 190 kts 128°
2026-04-29 22:03 36.18440 14.05104 2994 ft 189 kts 127°
2026-04-29 22:03 36.17636 14.06389 2993 ft 189 kts 128°
2026-04-29 22:03 36.16830 14.07669 2998 ft 189 kts 128°
2026-04-29 22:04 36.16023 14.08949 3003 ft 188 kts 128°
2026-04-29 22:04 36.15218 14.10234 3003 ft 189 kts 128°
2026-04-29 22:04 36.14415 14.11522 3001 ft 189 kts 127°
2026-04-29 22:04 36.13609 14.12809 2997 ft 189 kts 127°
2026-04-29 22:05 36.12811 14.14097 2997 ft 188 kts 128°
2026-04-29 22:05 36.11956 14.15323 2995 ft 188 kts 133°
2026-04-29 22:05 36.10124 14.17598 3002 ft 187 kts 134°
2026-04-29 22:06 36.09203 14.18736 2998 ft 188 kts 134°
2026-04-29 22:06 36.08278 14.19878 3002 ft 188 kts 134°
2026-04-29 22:06 36.07355 14.21019 2994 ft 188 kts 134°
2026-04-29 22:06 36.06431 14.22160 2982 ft 188 kts 134°
2026-04-29 22:07 36.05509 14.23298 2993 ft 187 kts 134°
2026-04-29 22:07 36.04584 14.24442 2994 ft 188 kts 134°
2026-04-29 22:07 36.03660 14.25583 2986 ft 188 kts 134°
2026-04-29 22:07 36.02736 14.26725 2997 ft 188 kts 134°
2026-04-29 22:08 36.01805 14.27875 3001 ft 189 kts 134°
2026-04-29 22:08 36.00873 14.29027 2992 ft 190 kts 134°
2026-04-29 22:08 35.99939 14.30182 2989 ft 189 kts 134°
2026-04-29 22:08 35.99012 14.31329 2997 ft 187 kts 134°
2026-04-29 22:09 35.98107 14.32447 2998 ft 181 kts 134°
2026-04-29 22:09 35.97236 14.33523 2989 ft 179 kts 134°
2026-04-29 22:09 35.96358 14.34611 2984 ft 179 kts 134°
2026-04-29 22:09 35.95477 14.35702 2971 ft 180 kts 135°
2026-04-29 22:10 35.94565 14.36833 2741 ft 189 kts 134°
2026-04-29 22:10 35.93636 14.37980 2476 ft 187 kts 133°
2026-04-29 22:10 35.92730 14.39100 2256 ft 183 kts 133°
2026-04-29 22:10 35.91842 14.40200 2008 ft 179 kts 133°
2026-04-29 22:11 35.90975 14.41274 1775 ft 173 kts 133°
2026-04-29 22:11 35.90135 14.42312 1544 ft 171 kts 133°
2026-04-29 22:11 35.89290 14.43361 1331 ft 173 kts 133°
2026-04-29 22:11 35.88462 14.44383 1116 ft 161 kts 133°
2026-04-29 22:12 35.87698 14.45330 885 ft 150 kts 133°
2026-04-29 22:12 35.86974 14.46228 685 ft 145 kts 131°
2026-04-29 22:12 35.86268 14.47103 469 ft 146 kts 134°
2026-04-29 22:12 35.85555 14.47986 308 ft 142 kts 135°
2026-04-29 22:13 35.84911 14.48777 258 ft 116 kts 142°
2026-04-29 22:13 35.84551 14.49233 258 ft 36 kts 124°
2026-04-29 22:13 35.84462 14.49432 258 ft 16 kts 108°
2026-04-29 22:13 35.84445 14.49506 258 ft 3 kts 99°
2026-04-29 22:14 35.84445 14.49536 258 ft 5 kts 76°
2026-04-29 22:14 35.84503 14.49569 258 ft 13 kts 355°
2026-04-29 22:14 35.84598 14.49551 258 ft 16 kts 29°
2026-04-29 22:14 35.84709 14.49543 258 ft 20 kts 322°
2026-04-29 22:15 35.84805 14.49427 258 ft 11 kts 314°
2026-04-29 22:15 35.84857 14.49360 258 ft 12 kts 314°
2026-04-29 22:15 35.84924 14.49337 258 ft 8 kts 360°
2026-04-29 22:15 35.84953 14.49337 258 ft 3 kts 359°
2026-04-29 22:16 35.84955 14.49337 258 ft 0 kts 359°